Location: Rounton
(54.4000°N, 1.3500°W)
Time: 23:11:59
(UTC+00:00)

Explorer 7 - Pass Details

Date: 30 November 2021
Orbit: 483 x 674 km, 50.3° (Epoch: 17 January)

Event Time Altitude Azimuth Distance (km) Brightness Sun altitude
Rises 11:36:16 0° 273° (W) 2,628 10.2 13.8°
Reaches altitude 10° 11:38:39 10° 263° (W) 1,715 9.4 13.8°
Maximum altitude 11:42:06 31° 200° (SSW) 879 9.2 13.8°
Drops below altitude 10° 11:45:27 10° 137° (SE) 1,667 10.2 13.9°
Sets 11:47:45 0° 126° (SE) 2,540 10.8 13.9°
